Погода в Учаджи

Погода в Учаджи : погода сейчас, прогноз погоды и архив. Всё, что Вы хотите узнать о погоде в Учаджи!

Хотите узнать прогноз погоды в Учаджи? Тогда Вам сюда: Погода в Учаджи

Поиск расширенной информации на нашем сайте:

Полезная информация:

Другие новости

Новости СМИ2

Главная страница сайта

Новости сайта

03.07.2017

Напоминаем, что на нашем специализированном сайте Метеоцентр.Азия вы можете получить высокодетализированные автоматические прогнозы погоды по пунктам России, СНГ и мира в авиационном формате (включающие направление и скорость ветра, видимость, явления погоды, количество и форму облачности, нижнюю и верхнюю границу облачности).

Рекомендуем:

Погода в Учаджи - сегодня

Время (UTC), дата Ветер
(°,м/с) 
Видим.   Явления Облачность Т
(°С)
Тd
(°С)
f(%) Тe
(°С)
Pmin
(гПа)
dP
(гПа)
Po
(мм)
O2
(г/м3)
Тmin Tmax R s Состояние
почвы
03 16.07.19 020 (С) 10 км    ясно 
+30.2 +5.3 21 +30  999.2  0.3  734  265  +26.9        сухая 
06 16.07.19 070 (В) 10 км    ясно 
+42 +3.4 10 +42  999.6  1.2  735  256  +26.9         
09 16.07.19 050 (СВ) 10 км    ясно 
+44.6 +2.9 8 +45  999.1  -0.4  734  254           
12 16.07.19 050 (СВ) 10 км    ясно 
+45 +2.7 8 +45  998  -1.1  733  253           
15 16.07.19 050 (СВ) 10 км    ясно 
+42.6 +3.8 9 +43  997.4  -0.7  733  255    +46.2       
18 16.07.19 090 (В) 10 км    ясно 
+31.6 +15.8 39 +42  999.9  1.9  734  262    +46.2       
21 16.07.19 360 (С) 10 км    ясно 
+26.6 +10.6 37 +29  1000.4  734  268           
00 17.07.19 020 (С) 10 км    ясно 
+24.8 +8.6 36 +25  1000.5  734  270           
03 17.07.19 340 (С) 10 км    ясно 
+29.2 +8 26 +29  1000.9  0.8  735  266  +24        сухая 
06 17.07.19 050 (СВ) 10 км    ясно 
+42.4 +4.5 10 +42  1000.3  0.2  735  256  +24         
09 17.07.19 070 (В) 10 км    ясно 
+44.4 +3.6 9 +44  999.9  -0.3  735  254           
12 17.07.19 070 (В) 10 км    ясно 
+44.5 +2.1 8 +45  999.2  -0.7  734  254           
15 17.07.19 070 (В) 10 км    ясно 
+42.5 +2.7 9 +43  999.2  -0.1  734  256    +45.8       
18 17.07.19 020 (С) 10 км    ясно 
+34.7 +7.4 19 +35  999.7  734  261    +45.8       
21 17.07.19 020 (С) 10 км    ясно 
+31.2 +6.8 22 +31  1001  735  265           
00 18.07.19 050 (СВ) 10 км    ясно 
+28.9 +8 27 +29  1001.1  735  266           
03 18.07.19 050 (СВ) 10 км    ясно 
+31.4 +3.6 17 +31  1001.6  0.5  735  265  +26        сухая 
06 18.07.19 020 (С) 10 км    ясно 
+40.8 +3.4 10 +41  1001.7  0.8  736  257  +26         
09 18.07.19 020 (С) 10 км    ясно 
+44.2 -0.2 7 +44  1001.1  -0.4  736  255           
12 18.07.19 050 (СВ) 10 км    ясно 
+45 +3.2 8 +45  999.5  -1.5  735  254           
15 18.07.19 050 (СВ) 10 км    ясно 
+43.4 -0.9 6 +43  999.2  -0.4  734  255    +45.8       
18 18.07.19 020 (С) 10 км    ясно 
+33 +10.6 25 +35  1000.7  0.9  735  262    +45.8       
21 18.07.19 340 (С) 10 км    ясно 
+29.8 +8.1 26 +30  1000.7  -0.2  735  266           
00 19.07.19 360 (С) 10 км    ясно 
+28.2 +5.3 23 +28  1001.5  0.6  735  268           
03 19.07.19 070 (В) 10 км    ясно 
+31.4 +5 19 +31  1002.4  736  265  +26.4        сухая 
Время (UTC), дата Ветер
(°,м/с) 
Видим.   Явления Облачность Т
(°С)
Тd
(°С)
f(%) Тe
(°С)
Pmin
(гПа)
dP
(гПа)
Po
(мм)
O2
(г/м3)
Тmin Tmax R s Состояние
почвы

Для получения пояснительной информации подведите курсор к названию столбца.

ПОГОДА в Учаджи - архив

Всё, что Вы хотите узнать о погоде в Учаджи - удобно и подробно!

Выберите нужную дату (начиная с 1 января 2018* года) и нажмите кнопку "Найти".
Будут отображены архивные сводки погоды по пункту Учаджи, начиная с указанной даты.


Отображать данные в формате CSV (для использования в таблицах Excel)


Внимание! Наш архив погоды предназначен исключительно для личного некоммерческого использования в познавательных целях. Если Вам необходимы официальные справки о состоянии погоды (для производственных, юридических, коммерческих и т.п. целей), обращайтесь в органы Росгидромета.

*Примечание: данная дата относится к архиву по метеостанциям СССР (Россия, СНГ, Балтия).
Архив по метеостанциям Зарубежной Европы и Азии (кроме Китая) хранится 10 дней, по другим регионам земного шара (Китай, Африка, Америка, Австралия, Океания) - 1 день.

Учаджи - район местоположения метеостанции


Название, широта, долгота, высота метеостанции:
Учаджи 38.1°ш. 62.8°д. 185 м над ур. моря [Туркменистан]

Дополнительная информация

В oтличие oт бoльшинства пoгoдных сайтoв мы публикуем пoдрoбную метеoинфoрмацию в детальнoм прoфессиoнальнoм фoрмате.

Характеристики температуры и влажнoсти вoздуха измеряются на высoте 2 м в тени вдали oт зданий и деревьев.
Скoрoсть ветра измеряется на высoте 10 м (на урoвне рoста челoвека скoрoсть ветра ниже в 1.5-2 раза). Если метеoстанция нахoдится в гoрoде или в лесу, тo скoрoсть ветра занижена на 2-4 м/с пo сравнению с oткрытым местoм. Скoрoсть ветра над акватoриями крупных рек и oзёр, а также на вершинах хoлмoв на 2-5 м/с выше, чем в oбычных услoвиях.
Атмoсфернoе давление в разных тoчках местнoсти мoжет значительнo oтличаться oт давления на метеoстанции, в зависимoсти oт услoвий рельефа (при пoдъёме на 10 м давление пoнижается примернo на 1 мм рт.ст.).